Regional Weather Roundup
Issued by NWS

Home | Current Version | Previous Version | Graphics & Text | Print | Product List | Glossary On
Versions: 1 2 3 4 5 6 7 8 9 10 11 12 13 14 15 16 17 18 19 20 21 22 23 24 25 26 27 28 29 30 31 32 33 34 35 36 37 38 39 40 41 42 43 44 45 46 47 48 49 50
220
ASUS43 KLMK 201402
RWRKY
KENTUCKY REGIONAL WEATHER ROUNDUP
NATIONAL WEATHER SERVICE LOUISVILLE KY
1000 AM EDT WED SEP 20 2017

NOTE "FAIR" INDICATES FEW OR NO CLOUDS BELOW 12,000 FEET
WITH NO SIGNIFICANT WEATHER AND/OR OBSTRUCTIONS TO VISIBILITY.

KYZ001>023-026-027-061>063-070>075-201500-
WESTERN AND SOUTH CENTRAL KENTUCKY

CITY           SKY/WX    TMP DP  RH WIND       PRES   REMARKS
PADUCAH        SUNNY     78  70  76 SW7       29.99R
HENDERSON      SUNNY     77  72  84 S6        30.01R
OWENSBORO      SUNNY     76  71  85 S9        30.02R
HOPKINSVILLE   MOSUNNY   76  70  82 S8        30.03R
BOWLING GREEN  MOSUNNY   74  70  87 S6        30.05R
GLASGOW        MOSUNNY   72  69  89 SW3       30.06R
$$

KYZ024-025-028>034-038-045-046-053-201500-
NORTH CENTRAL KENTUCKY

CITY           SKY/WX    TMP DP  RH WIND       PRES   REMARKS
LOUISVILLE/SDF MOSUNNY   73  69  87 SE6       30.03S
LOUISVILLE/LOU SUNNY     73  71  93 SE5       30.04S
FORT KNOX      SUNNY     70  70 100 S3        30.03R
$$

KYZ035>037-039>044-047>052-055>060-089>105-201500-
NORTHEAST KENTUCKY

CITY           SKY/WX    TMP DP  RH WIND       PRES   REMARKS
LEXINGTON      SUNNY     73  69  87 S3        30.08S
COVINGTON      PTSUNNY   71  71 100 S7        30.05R
FRANKFORT      SUNNY     72  67  84 VRB3      30.05S
$$

KYZ054-064>069-076>088-106>120-201500-
SOUTHEAST KENTUCKY

CITY           SKY/WX    TMP DP  RH WIND       PRES   REMARKS
JACKSON        PTSUNNY   68  67  96 CALM      30.10S
LONDON         SUNNY     69  64  84 CALM      30.10R
SOMERSET       NOT AVBL
MIDDLESBORO    CLOUDY    64  64 100 CALM      30.12S FOG
MONTICELLO     SUNNY    N/A N/A N/A NW8       30.11R
$$





USA.gov is the U.S. government's official web portal to all federal, state and local government web resources and services.